Time,TemperatureF,DewpointF,PressureIn,WindDirection,WindDirectionDegrees,WindSpeedMPH,WindSpeedGustMPH,Humidity,HourlyPrecipIn,Conditions,Clouds,dailyrainin,SoftwareType,DateUTC
2013-01-24 00:01:00,50.0,47.0,30.09,ENE,71,27.0,39.0,88,0.01,,,0.04,,2013-01-24 08:01:00,
2013-01-24 00:12:00,50.0,47.0,30.09,ENE,71,27.0,39.0,88,0.01,,,0.04,,2013-01-24 08:12:00,
2013-01-24 00:22:00,50.0,47.0,30.10,ENE,78,29.0,38.0,90,0.00,,,0.04,,2013-01-24 08:22:00,
2013-01-24 00:32:00,51.0,48.0,30.10,East,80,28.0,35.0,91,0.00,,,0.04,,2013-01-24 08:32:00,
2013-01-24 00:42:00,51.0,48.0,30.10,East,80,28.0,35.0,91,0.00,,,0.04,,2013-01-24 08:42:00,
2013-01-24 00:53:00,50.0,48.0,30.10,East,85,25.0,33.0,92,0.01,,,0.05,,2013-01-24 08:53:00,
2013-01-24 01:02:00,50.0,48.0,30.10,ENE,74,25.0,33.0,94,0.03,,,0.07,,2013-01-24 09:02:00,
2013-01-24 01:12:00,50.0,48.0,30.10,ENE,74,25.0,33.0,94,0.03,,,0.07,,2013-01-24 09:12:00,
2013-01-24 01:22:00,51.0,50.0,30.10,East,84,28.0,42.0,95,0.05,,,0.09,,2013-01-24 09:22:00,
2013-01-24 01:32:00,50.0,49.0,30.10,East,81,29.0,36.0,96,0.07,,,0.11,,2013-01-24 09:32:00,
2013-01-24 01:42:00,50.0,49.0,30.10,East,81,29.0,36.0,96,0.07,,,0.11,,2013-01-24 09:42:00,
2013-01-24 01:53:00,50.0,49.0,30.10,East,86,28.0,37.0,96,0.07,,,0.12,,2013-01-24 09:53:00,
2013-01-24 02:02:00,50.0,49.0,30.10,East,91,26.0,38.0,96,0.07,,,0.14,,2013-01-24 10:02:00,
2013-01-24 02:11:00,50.0,49.0,30.10,East,91,26.0,38.0,96,0.07,,,0.14,,2013-01-24 10:11:00,
2013-01-24 02:22:00,50.0,49.0,30.11,East,91,27.0,31.0,97,0.06,,,0.15,,2013-01-24 10:22:00,
2013-01-24 02:32:00,50.0,49.0,30.10,East,84,26.0,33.0,97,0.08,,,0.19,,2013-01-24 10:32:00,
2013-01-24 02:42:00,50.0,49.0,30.10,East,84,26.0,33.0,97,0.08,,,0.19,,2013-01-24 10:42:00,
2013-01-24 02:53:00,50.0,49.0,30.10,East,80,25.0,31.0,97,0.08,,,0.20,,2013-01-24 10:53:00,
2013-01-24 03:02:00,50.0,49.0,30.10,ENE,71,24.0,30.0,97,0.06,,,0.20,,2013-01-24 11:02:00,
2013-01-24 03:11:00,50.0,49.0,30.10,ENE,71,24.0,30.0,97,0.06,,,0.20,,2013-01-24 11:11:00,
2013-01-24 03:22:00,51.0,50.0,30.09,ENE,73,23.0,32.0,96,0.04,,,0.20,,2013-01-24 11:22:00,
2013-01-24 03:32:00,51.0,50.0,30.09,East,80,18.0,25.0,96,0.02,,,0.21,,2013-01-24 11:32:00,
2013-01-24 03:42:00,51.0,50.0,30.09,East,80,18.0,25.0,96,0.02,,,0.21,,2013-01-24 11:42:00,
2013-01-24 03:53:00,51.0,50.0,30.09,East,84,19.0,22.0,97,0.03,,,0.23,,2013-01-24 11:53:00,
2013-01-24 04:02:00,51.0,50.0,30.09,East,87,11.0,19.0,97,0.05,,,0.25,,2013-01-24 12:02:00,
2013-01-24 04:12:00,51.0,50.0,30.09,East,87,11.0,19.0,97,0.05,,,0.25,,2013-01-24 12:12:00,
2013-01-24 04:22:00,51.0,50.0,30.09,East,79,15.0,18.0,97,0.08,,,0.28,,2013-01-24 12:22:00,
2013-01-24 04:32:00,51.0,50.0,30.09,East,82,15.0,19.0,97,0.10,,,0.31,,2013-01-24 12:32:00,
2013-01-24 04:42:00,51.0,50.0,30.09,East,82,15.0,19.0,97,0.10,,,0.31,,2013-01-24 12:42:00,
2013-01-24 04:53:00,51.0,50.0,30.09,East,80,16.0,22.0,98,0.09,,,0.32,,2013-01-24 12:53:00,
2013-01-24 05:02:00,51.0,50.0,30.09,ENE,74,13.0,17.0,98,0.08,,,0.33,,2013-01-24 13:02:00,
2013-01-24 05:12:00,51.0,50.0,30.09,ENE,74,13.0,17.0,98,0.08,,,0.33,,2013-01-24 13:12:00,
2013-01-24 05:22:00,51.0,50.0,30.10,East,83,14.0,18.0,98,0.05,,,0.33,,2013-01-24 13:22:00,
2013-01-24 05:32:00,51.0,50.0,30.10,East,83,13.0,15.0,98,0.02,,,0.33,,2013-01-24 13:32:00,
2013-01-24 05:42:00,51.0,50.0,30.10,East,83,13.0,15.0,98,0.02,,,0.33,,2013-01-24 13:42:00,
2013-01-24 05:53:00,51.0,50.0,30.10,East,86,14.0,18.0,98,0.02,,,0.34,,2013-01-24 13:53:00,
2013-01-24 06:02:00,51.0,50.0,30.10,East,84,14.0,19.0,98,0.03,,,0.36,,2013-01-24 14:02:00,
2013-01-24 06:12:00,51.0,50.0,30.10,East,84,14.0,19.0,98,0.03,,,0.36,,2013-01-24 14:12:00,
2013-01-24 06:22:00,51.0,50.0,30.11,East,97,19.0,22.0,98,0.06,,,0.39,,2013-01-24 14:22:00,
2013-01-24 06:32:00,51.0,50.0,30.11,East,97,19.0,22.0,98,0.06,,,0.39,,2013-01-24 14:32:00,
2013-01-24 06:43:00,51.0,50.0,30.11,East,97,19.0,22.0,98,0.06,,,0.39,,2013-01-24 14:43:00,
2013-01-24 06:53:00,51.0,50.0,30.11,East,97,19.0,22.0,98,0.06,,,0.39,,2013-01-24 14:53:00,
2013-01-24 07:02:00,51.0,50.0,30.11,East,97,19.0,22.0,98,0.06,,,0.39,,2013-01-24 15:02:00,
2013-01-24 08:23:00,51.0,50.0,30.14,ENE,66,16.0,22.0,98,0.01,,,0.51,,2013-01-24 16:23:00,
2013-01-24 08:33:00,51.0,50.0,30.15,ENE,71,18.0,22.0,98,0.02,,,0.52,,2013-01-24 16:33:00,
2013-01-24 08:43:00,51.0,50.0,30.15,ENE,71,18.0,22.0,98,0.02,,,0.52,,2013-01-24 16:43:00,
2013-01-24 09:01:00,51.0,50.0,30.16,East,82,17.0,20.0,98,0.03,,,0.54,,2013-01-24 17:01:00,
2013-01-24 09:11:00,51.0,50.0,30.16,East,82,17.0,20.0,98,0.03,,,0.54,,2013-01-24 17:11:00,
2013-01-24 09:21:00,51.0,50.0,30.17,ENE,64,21.0,25.0,98,0.03,,,0.54,,2013-01-24 17:21:00,
2013-01-24 09:32:00,51.0,50.0,30.18,ENE,69,18.0,25.0,98,0.02,,,0.54,,2013-01-24 17:32:00,
2013-01-24 09:42:00,51.0,50.0,30.18,ENE,69,18.0,25.0,98,0.02,,,0.54,,2013-01-24 17:42:00,
2013-01-24 09:52:00,51.0,50.0,30.18,East,84,19.0,26.0,98,0.01,,,0.54,,2013-01-24 17:52:00,
2013-01-24 10:01:00,51.0,50.0,30.19,East,84,22.0,27.0,98,0.00,,,0.54,,2013-01-24 18:01:00,
2013-01-24 10:11:00,51.0,50.0,30.20,East,90,20.0,26.0,98,0.00,,,0.54,,2013-01-24 18:11:00,
2013-01-24 10:22:00,51.0,50.0,30.20,East,90,20.0,26.0,98,0.00,,,0.54,,2013-01-24 18:22:00,
2013-01-24 10:32:00,51.0,51.0,30.20,East,94,18.0,27.0,99,0.00,,,0.54,,2013-01-24 18:32:00,
2013-01-24 10:42:00,51.0,51.0,30.20,East,94,18.0,27.0,99,0.00,,,0.54,,2013-01-24 18:42:00,
2013-01-24 10:53:00,51.0,51.0,30.20,East,101,21.0,28.0,99,0.00,,,0.54,,2013-01-24 18:53:00,
2013-01-24 11:01:00,51.0,51.0,30.20,East,92,22.0,30.0,99,0.00,,,0.54,,2013-01-24 19:01:00,
2013-01-24 11:11:00,51.0,51.0,30.20,East,92,22.0,30.0,99,0.00,,,0.54,,2013-01-24 19:11:00,
2013-01-24 11:21:00,51.0,51.0,30.20,ESE,103,25.0,31.0,99,0.00,,,0.54,,2013-01-24 19:21:00,
2013-01-24 11:32:00,51.0,51.0,30.19,East,80,23.0,32.0,99,0.00,,,0.54,,2013-01-24 19:32:00,
2013-01-24 11:41:00,51.0,51.0,30.19,East,80,23.0,32.0,99,0.00,,,0.54,,2013-01-24 19:41:00,
2013-01-24 11:52:00,51.0,51.0,30.19,East,99,24.0,31.0,99,0.00,,,0.54,,2013-01-24 19:52:00,
2013-01-24 12:01:00,51.0,51.0,30.19,East,97,24.0,32.0,99,0.00,,,0.54,,2013-01-24 20:01:00,
2013-01-24 12:11:00,51.0,51.0,30.19,East,97,24.0,32.0,99,0.00,,,0.54,,2013-01-24 20:11:00,
2013-01-24 12:21:00,50.0,50.0,30.19,East,99,22.0,30.0,99,0.00,,,0.54,,2013-01-24 20:21:00,
2013-01-24 12:32:00,50.0,50.0,30.19,East,92,25.0,28.0,99,0.00,,,0.54,,2013-01-24 20:32:00,
2013-01-24 12:42:00,50.0,50.0,30.19,East,92,25.0,28.0,99,0.00,,,0.54,,2013-01-24 20:42:00,
2013-01-24 12:52:00,51.0,51.0,30.19,NE,53,18.0,29.0,99,0.00,,,0.54,,2013-01-24 20:52:00,
2013-01-24 13:01:00,50.0,50.0,30.18,ENE,74,21.0,28.0,99,0.00,,,0.54,,2013-01-24 21:01:00,
2013-01-24 13:11:00,50.0,50.0,30.18,ENE,74,21.0,28.0,99,0.00,,,0.54,,2013-01-24 21:11:00,
2013-01-24 13:22:00,51.0,50.0,30.17,ENE,78,21.0,29.0,98,0.00,,,0.54,,2013-01-24 21:22:00,
2013-01-24 13:32:00,52.0,51.0,30.17,East,89,24.0,31.0,95,0.00,,,0.54,,2013-01-24 21:32:00,
2013-01-24 13:42:00,52.0,51.0,30.17,East,89,24.0,31.0,95,0.00,,,0.54,,2013-01-24 21:42:00,
2013-01-24 13:52:00,52.0,50.0,30.18,East,86,21.0,28.0,93,0.00,,,0.54,,2013-01-24 21:52:00,
2013-01-24 14:02:00,53.0,50.0,30.17,East,86,22.0,31.0,91,0.00,,,0.54,,2013-01-24 22:02:00,
2013-01-24 14:11:00,53.0,50.0,30.17,East,86,22.0,31.0,91,0.00,,,0.54,,2013-01-24 22:11:00,
2013-01-24 14:21:00,53.0,50.0,30.16,ENE,69,21.0,28.0,90,0.00,,,0.54,,2013-01-24 22:21:00,
2013-01-24 14:32:00,53.0,51.0,30.16,ENE,78,19.0,32.0,92,0.00,,,0.54,,2013-01-24 22:32:00,
2013-01-24 14:42:00,53.0,51.0,30.16,ENE,78,19.0,32.0,92,0.00,,,0.54,,2013-01-24 22:42:00,
2013-01-24 14:53:00,53.0,50.0,30.16,East,92,16.0,28.0,91,0.00,,,0.54,,2013-01-24 22:53:00,
2013-01-24 15:01:00,53.0,50.0,30.16,East,99,13.0,25.0,91,0.00,,,0.54,,2013-01-24 23:01:00,
2013-01-24 15:11:00,53.0,50.0,30.16,East,99,13.0,25.0,91,0.00,,,0.54,,2013-01-24 23:11:00,
2013-01-24 15:21:00,53.0,50.0,30.16,East,84,15.0,24.0,91,0.00,,,0.54,,2013-01-24 23:21:00,
2013-01-24 15:31:00,53.0,51.0,30.16,East,84,14.0,18.0,92,0.00,,,0.54,,2013-01-24 23:31:00,
2013-01-24 15:42:00,53.0,51.0,30.16,East,84,14.0,18.0,92,0.00,,,0.54,,2013-01-24 23:42:00,
2013-01-24 15:52:00,54.0,52.0,30.16,ENE,71,13.0,17.0,92,0.00,,,0.54,,2013-01-24 23:52:00,
2013-01-24 16:01:00,54.0,52.0,30.16,ENE,74,12.0,17.0,92,0.00,,,0.54,,2013-01-25 00:01:00,
2013-01-24 16:12:00,54.0,52.0,30.16,ENE,74,12.0,17.0,92,0.00,,,0.54,,2013-01-25 00:12:00,
2013-01-24 16:21:00,54.0,51.0,30.16,East,84,13.0,17.0,91,0.00,,,0.54,,2013-01-25 00:21:00,
2013-01-24 16:31:00,54.0,51.0,30.16,East,79,13.0,17.0,91,0.00,,,0.54,,2013-01-25 00:31:00,
2013-01-24 16:41:00,54.0,51.0,30.16,East,79,13.0,17.0,91,0.00,,,0.54,,2013-01-25 00:41:00,
2013-01-24 16:52:00,54.0,52.0,30.18,East,90,9.0,12.0,92,0.00,,,0.54,,2013-01-25 00:52:00,
2013-01-24 17:01:00,54.0,51.0,30.19,East,85,8.0,12.0,91,0.00,,,0.54,,2013-01-25 01:01:00,
2013-01-24 17:11:00,54.0,51.0,30.19,East,85,8.0,12.0,91,0.00,,,0.54,,2013-01-25 01:11:00,
2013-01-24 17:21:00,54.0,52.0,30.19,East,79,9.0,11.0,92,0.00,,,0.54,,2013-01-25 01:21:00,
2013-01-24 17:31:00,54.0,51.0,30.19,ENE,68,11.0,14.0,91,0.00,,,0.54,,2013-01-25 01:31:00,
2013-01-24 17:41:00,54.0,51.0,30.19,ENE,68,11.0,14.0,91,0.00,,,0.54,,2013-01-25 01:41:00,
2013-01-24 17:51:00,54.0,51.0,30.18,East,88,14.0,19.0,90,0.00,,,0.54,,2013-01-25 01:51:00,
2013-01-24 18:01:00,54.0,51.0,30.17,ENE,78,18.0,23.0,90,0.00,,,0.54,,2013-01-25 02:01:00,
2013-01-24 18:11:00,54.0,51.0,30.17,ENE,78,18.0,23.0,90,0.00,,,0.54,,2013-01-25 02:11:00,
2013-01-24 18:22:00,54.0,51.0,30.18,East,87,14.0,21.0,90,0.00,,,0.54,,2013-01-25 02:22:00,
2013-01-24 18:31:00,55.0,52.0,30.18,East,84,15.0,17.0,90,0.00,,,0.54,,2013-01-25 02:31:00,
2013-01-24 18:42:00,55.0,52.0,30.18,East,84,15.0,17.0,90,0.00,,,0.54,,2013-01-25 02:42:00,
2013-01-24 18:52:00,55.0,52.0,30.18,East,80,13.0,17.0,90,0.00,,,0.54,,2013-01-25 02:52:00,
2013-01-24 19:01:00,55.0,52.0,30.18,ENE,69,15.0,18.0,89,0.00,,,0.54,,2013-01-25 03:01:00,
2013-01-24 19:12:00,55.0,52.0,30.17,ENE,61,18.0,22.0,88,0.00,,,0.54,,2013-01-25 03:12:00,
2013-01-24 19:21:00,55.0,52.0,30.17,ENE,61,18.0,22.0,88,0.00,,,0.54,,2013-01-25 03:21:00,
2013-01-24 19:32:00,56.0,52.0,30.16,NE,45,19.0,27.0,87,0.00,,,0.54,,2013-01-25 03:32:00,
2013-01-24 19:41:00,56.0,52.0,30.16,NE,45,19.0,27.0,87,0.00,,,0.54,,2013-01-25 03:41:00,
2013-01-24 19:52:00,56.0,52.0,30.17,ENE,68,16.0,24.0,85,0.00,,,0.54,,2013-01-25 03:52:00,
2013-01-24 20:01:00,56.0,52.0,30.17,ENE,62,12.0,18.0,85,0.00,,,0.54,,2013-01-25 04:01:00,
2013-01-24 20:11:00,56.0,52.0,30.17,ENE,62,12.0,18.0,85,0.00,,,0.54,,2013-01-25 04:11:00,
2013-01-24 20:22:00,55.0,51.0,30.19,ENE,74,9.0,17.0,87,0.00,,,0.54,,2013-01-25 04:22:00,
2013-01-24 20:31:00,55.0,51.0,30.19,ENE,74,9.0,17.0,87,0.00,,,0.54,,2013-01-25 04:31:00,
2013-01-24 20:41:00,55.0,51.0,30.19,ENE,74,9.0,17.0,87,0.00,,,0.54,,2013-01-25 04:41:00,
2013-01-24 20:51:00,55.0,51.0,30.19,ENE,74,9.0,17.0,87,0.00,,,0.54,,2013-01-25 04:51:00,
2013-01-24 21:03:00,55.0,52.0,30.20,ENE,76,5.0,8.0,89,0.00,,,0.54,,2013-01-25 05:03:00,
2013-01-24 21:12:00,54.0,52.0,30.19,ENE,68,8.0,10.0,92,0.02,,,0.56,,2013-01-25 05:12:00,
2013-01-24 21:22:00,54.0,52.0,30.19,ENE,68,8.0,10.0,92,0.02,,,0.56,,2013-01-25 05:22:00,
2013-01-24 21:32:00,54.0,52.0,30.19,ENE,68,8.0,10.0,92,0.02,,,0.56,,2013-01-25 05:32:00,
2013-01-24 21:42:00,54.0,52.0,30.19,ENE,68,8.0,10.0,92,0.02,,,0.56,,2013-01-25 05:42:00,
2013-01-24 21:51:00,55.0,52.0,30.19,East,86,9.0,10.0,91,0.03,,,0.56,,2013-01-25 05:51:00,
2013-01-24 22:01:00,55.0,52.0,30.19,ENE,71,20.0,25.0,91,0.03,,,0.56,,2013-01-25 06:01:00,
2013-01-24 22:11:00,55.0,52.0,30.19,ENE,71,20.0,25.0,91,0.03,,,0.56,,2013-01-25 06:11:00,
2013-01-24 22:21:00,55.0,52.0,30.19,ENE,71,20.0,25.0,91,0.03,,,0.56,,2013-01-25 06:21:00,
2013-01-24 22:31:00,57.0,53.0,30.19,ENE,71,11.0,18.0,86,0.00,,,0.56,,2013-01-25 06:31:00,
2013-01-24 22:41:00,57.0,53.0,30.19,ENE,71,11.0,18.0,86,0.00,,,0.56,,2013-01-25 06:41:00,
2013-01-24 22:51:00,57.0,53.0,30.19,ENE,67,15.0,19.0,86,0.00,,,0.56,,2013-01-25 06:51:00,
2013-01-24 23:01:00,57.0,53.0,30.19,ENE,61,17.0,22.0,85,0.00,,,0.56,,2013-01-25 07:01:00,
2013-01-24 23:11:00,57.0,53.0,30.19,ENE,61,17.0,22.0,85,0.00,,,0.56,,2013-01-25 07:11:00,
2013-01-24 23:21:00,57.0,53.0,30.19,ENE,61,17.0,22.0,85,0.00,,,0.56,,2013-01-25 07:21:00,
2013-01-24 23:31:00,57.0,53.0,30.19,ENE,65,18.0,22.0,86,0.00,,,0.53,,2013-01-25 07:31:00,
2013-01-24 23:41:00,57.0,53.0,30.19,ENE,65,18.0,22.0,86,0.00,,,0.53,,2013-01-25 07:41:00,
2013-01-24 23:51:00,57.0,53.0,30.19,ENE,77,14.0,21.0,87,0.01,,,0.54,,2013-01-25 07:51:00,